Location: Newark
(49.7808°N, 2.3717°E)
Time: 18:40:23
(UTC+00:00)

Envisat - Visible Passes

Search period start: 26 January 2020 00:00
Search period end: 05 February 2020 00:00
Orbit: 764 x 766 km, 98.1° (Epoch: 26 January)

Date Brightness Start Highest point End Pass type
(mag) Time Alt. Az. Time Alt. Az. Time Alt. Az.
26 Jan 5.5 05:35:59 10° NE 05:40:03 23° E 05:44:05 10° SE visible
26 Jan 5.2 18:34:22 10° SSW 18:38:41 27° W 18:43:01 10° NW visible
27 Jan 6.3 05:01:07 10° ENE 05:02:46 11° E 05:04:26 10° ESE visible
27 Jan 3.3 06:37:34 10° NNE 06:42:41 76° ESE 06:47:45 10° S visible
27 Jan 3.8 17:56:41 10° S 18:01:39 55° W 18:06:40 10° NNW visible
28 Jan 4.6 06:01:01 10° NNE 06:05:46 38° E 06:10:28 10° SSE visible
28 Jan 3.0 17:19:46 10° SSE 17:24:50 76° ENE 17:29:56 10° NNW visible
28 Jan 5.9 19:01:11 10° SW 19:04:27 17° W 19:07:45 10° NW visible
29 Jan 5.8 05:25:01 10° NE 05:28:38 19° E 05:32:14 10° SE visible
29 Jan 4.8 18:22:43 10° SSW 18:27:17 33° W 18:31:54 10° NNW visible
30 Jan 3.6 06:26:18 10° NNE 06:31:22 62° E 06:36:24 10° S visible
30 Jan 3.4 17:45:17 10° S 17:50:20 67° WSW 17:55:25 10° NNW visible
31 Jan 5.0 05:49:52 10° NNE 05:54:23 31° E 05:58:52 10° SSE visible
31 Jan 3.0 17:08:34 10° SSE 17:13:34 62° ENE 17:18:36 10° N visible
31 Jan 5.7 18:49:14 10° SW 18:53:01 21° W 18:56:50 10° NW visible
01 Feb 6.1 05:14:10 10° NE 05:17:12 16° E 05:20:12 10° ESE visible
01 Feb 4.4 18:11:09 10° SSW 18:15:55 41° W 18:20:44 10° NNW visible
02 Feb 4.1 06:15:04 10° NNE 06:20:02 50° E 06:24:58 10° S visible
02 Feb 3.1 17:33:56 10° SSE 17:39:01 82° WSW 17:44:09 10° NNW visible
02 Feb 6.3 19:16:42 10° WSW 19:18:52 13° W 19:21:02 10° WNW visible
03 Feb 5.4 05:38:47 10° NE 05:43:00 25° E 05:47:10 10° SSE visible
03 Feb 5.4 18:37:26 10° SSW 18:41:37 25° W 18:45:49 10° NW visible
04 Feb 6.3 05:03:36 10° ENE 05:05:44 13° E 05:07:52 10° ESE visible
04 Feb 3.2 06:40:28 10° NNE 06:45:35 82° ESE 06:50:41 10° SSW visible
04 Feb 4.0 17:59:38 10° S 18:04:35 50° W 18:09:32 10° NNW visible
